{"data":{"norad_id":56116,"intl_designator":"2023-046Z","name":"STARLINK-6114","alt_names":[],"object_type":"PAYLOAD","status":"ACTIVE","operator":null,"country":"US","launch_date":"2023-03-29","launch_site_code":"AFETR","launch_vehicle":null,"mission":null,"orbit_class":"UNKNOWN","rcs_meters":null,"size_class":null,"mass_kg":null,"dimensions":null,"purposes":["comms"],"wikipedia_slug":null,"has_3d_model":false,"image_url":null,"decayed_at":null,"tle_current":{"epoch":"2026-05-24T23:25:48.368064Z","epoch_age_seconds":76813,"freshness":"FRESH","line1":"1 56116U 23046Z   26144.97625426  .00000282  00000+0  19762-4 0  9992","line2":"2 56116  43.0031  91.1548 0001547 275.0116  85.0559 15.27577036173690","mean_motion":15.27577036,"eccentricity":0.0001547,"inclination_deg":43.0031,"raan_deg":91.1548,"arg_perigee_deg":275.0116,"mean_anomaly_deg":85.0559,"bstar":1.9762e-5,"rev_number":17369,"period_min":94.266931622033,"perigee_km":481.99654447423,"apogee_km":484.11939819836,"semimajor_km":6861.1949713363,"source":"CELESTRAK","updated_at":"2026-05-25T13:38:17.957352Z"}}}